Wetbulb
46.11 46.51 46.57 47.18 47.05 47.05 46.55 46.28 46.16 46.22 45.99 46.86 49.30 50.24 51.22 53.53 53.57 53.90 53.49 59.56 60.87 60.28 61.08 60.94 60.56 60.38 60.29 60.59 60.67 60.28 60.03 59.53 59.44 59.33 60.60 61.19 61.57 62.32 62.70 62.55 62.36 62.06 61.91
47.18 47.34 47.36 47.63 47.47 47.54 46.75 46.54 46.08 45.84 45.28 45.39 46.04 49.33 49.84 53.03 53.37 52.68 52.57 53.57 59.78 59.48 59.85 59.51 59.09 58.94 59.30 59.65 60.02 60.14 59.75 59.57 58.99 58.88 59.38 60.46 60.14 60.95 61.69 62.05 61.84 61.48 61.35
48.24 47.69 47.77 48.03 47.99 47.85 47.75 47.29 46.81 46.50 45.66 46.20 45.06 45.95 49.65 49.68 51.55 52.07 52.25 52.43 53.34 56.53 59.05 58.35 58.26 58.30 58.30 59.08 59.50 59.69 59.70 59.18 58.60 58.41 58.45 59.86 59.66 59.44 60.25 61.28 61.11 60.80 60.44
48.84 47.92 48.25 48.41 48.32 47.92 47.24 46.60 46.24 45.60 44.91 44.84 44.46 45.66 46.33 50.08 49.58 49.52 49.28 50.39 52.18 52.71 53.60 57.64 57.56 57.84 57.66 58.45 58.78 59.09 58.95 58.61 58.32 57.98 57.75 59.12 58.31 58.26 59.06 60.25 61.10 59.95 59.66
49.86 48.85 48.54 48.32 48.28 47.69 47.00 47.06 45.60 45.08 43.94 44.54 45.94 45.16 45.47 48.34 48.67 50.83 48.08 48.75 51.19 50.76 49.61 52.95 53.74 54.30 56.18 57.40 57.87 58.32 58.30 58.14 57.79 57.68 57.45 57.53 57.38 57.81 58.14 59.08 59.47 59.23 58.54
50.04 49.32 48.77 48.49 47.97 47.00 46.15 45.88 44.49 44.64 44.07 43.66 46.13 45.51 45.41 47.47 44.86 46.22 46.81 47.48 46.72 47.92 47.79 47.07 46.92 48.15 53.69 54.85 56.53 57.39 57.56 57.74 57.82 57.76 57.53 57.49 57.41 57.50 57.80 57.80 57.85 58.18 59.13
50.15 48.84 47.98 47.86 47.48 45.97 44.81 45.72 45.13 43.96 44.41 43.82 42.42 42.40 42.80 44.39 44.21 44.65 45.40 45.11 45.77 46.31 46.42 46.61 46.27 46.40 46.89 51.77 53.58 56.40 56.78 57.16 57.32 57.68 57.74 57.93 58.26 58.25 57.91 58.55 59.31 59.51 58.79
50.01 49.17 47.86 47.17 46.79 45.15 44.70 44.39 44.32 43.30 43.41 43.70 41.87 39.77 37.86 40.57 42.76 44.21 44.41 45.68 43.78 44.79 45.45 46.55 45.36 45.88 45.42 45.15 48.93 53.84 55.27 56.75 57.31 57.52 56.95 57.70 58.70 59.08 59.05 59.12 59.51 59.79 60.17
49.52 48.76 47.61 46.72 45.73 45.22 43.90 43.70 43.76 43.44 41.64 43.18 42.97 40.76 36.66 36.20 39.92 42.63 43.32 43.62 43.00 43.35 43.90 45.05 45.34 45.43 44.92 45.51 47.86 49.91 52.84 54.30 56.45 57.75 57.21 57.14 57.60 57.96 59.02 59.92 59.67 59.58 59.07
48.55 48.33 47.42 46.48 45.88 46.09 44.31 44.55 44.58 43.40 42.47 41.21 42.73 44.46 42.63 42.21 39.11 37.75 42.25 42.17 43.10 43.76 43.24 44.39 44.29 44.67 44.51 45.10 47.61 49.45 52.04 52.40 53.87 55.06 56.33 56.86 57.36 57.77 58.39 58.87 59.60 59.62 59.31
47.64 47.39 47.52 46.77 45.58 44.60 43.76 43.10 42.94 42.68 42.34 41.41 41.32 41.51 40.82 41.15 40.58 39.21 37.58 39.65 41.91 43.02 43.93 43.30 43.41 43.21 43.75 44.42 44.19 46.75 50.64 50.84 52.28 53.49 54.80 55.66 56.26 56.75 57.33 57.61 57.72 57.79 57.66
46.97 47.24 46.22 45.50 44.99 44.11 42.80 42.42 42.28 41.48 41.24 40.98 40.85 41.01 40.49 39.70 39.27 38.63 37.40 37.39 37.49 39.87 41.73 42.53 42.31 42.57 43.00 43.03 45.58 48.30 49.20 49.65 50.69 51.74 53.18 54.26 54.66 54.63 54.78 55.56 55.77 55.56 55.59
44.98 44.29 44.74 43.90 43.62 43.03 42.86 42.48 41.57 40.53 40.50 39.69 39.32 40.00 41.38 40.67 40.88 39.83 38.43 36.88 36.35 37.94 39.33 40.63 40.87 41.15 43.05 41.77 43.09 47.12 46.86 47.96 48.79 49.96 51.81 52.93 52.51 51.91 51.78 52.29 53.28 53.82 53.75
44.42 43.99 43.28 42.83 42.40 42.04 41.32 41.34 40.42 39.57 38.72 37.74 37.14 37.19 37.65 37.89 38.72 38.42 37.88 36.19 33.31 34.70 36.16 37.17 39.16 39.81 39.97 40.73 42.99 44.72 42.15 46.14 47.42 48.84 49.75 49.85 49.14 48.83 49.05 49.59 50.47 51.00 51.45
43.55 42.48 41.86 40.56 40.25 40.21 39.97 39.18 38.33 37.64 36.92 36.64 36.28 35.56 35.94 36.89 36.68 36.74 36.94 36.81 34.30 29.84 30.25 33.49 34.90 38.72 39.48 39.83 40.31 40.19 40.02 43.72 46.45 46.72 46.52 46.58 46.83 47.11 47.92 48.60 48.94 49.18 49.62
42.37 41.63 40.62 39.36 38.57 38.24 37.74 37.01 36.34 35.97 35.29 34.68 34.83 33.64 33.39 34.21 33.83 34.43 34.34 34.55 34.83 33.09 29.70 34.47 34.60 36.53 37.65 38.78 39.96 39.96 39.67 42.92 44.02 45.19 45.26 45.43 46.04 46.32 46.81 47.02 47.28 48.06 48.20
40.89 39.53 38.92 38.23 37.22 36.18 35.81 34.64 34.66 34.70 33.46 31.96 31.65 31.80 31.65 32.11 31.94 31.43 32.10 32.40 32.14 32.18 30.38 32.09 34.61 34.81 33.79 34.71 36.76 38.00 38.99 38.51 39.18 43.08 44.42 44.57 44.95 44.79 44.90 45.39 46.13 46.60 47.26
39.09 38.26 37.92 36.88 36.03 35.57 34.57 33.87 33.05 33.05 32.70 31.45 31.10 30.70 30.69 33.54 30.66 30.26 29.94 29.68 30.19 30.90 30.97 30.00 30.61 31.79 32.85 34.51 35.35 34.82 37.58 38.91 37.59 40.96 43.62 43.95 44.03 44.17 44.35 44.56 44.26 44.17 44.14
37.45 37.14 35.94 34.91 34.58 34.47 33.46 33.09 32.57 31.84 31.90 31.47 31.24 30.88 30.87 30.32 29.40 28.92 28.64 28.61 29.73 32.51 30.66 29.30 29.81 31.97 33.08 34.18 33.48 33.70 34.02 34.74 37.32 40.69 41.93 42.55 43.30 43.65 43.83 43.26 42.76 43.33 43.20
35.95 34.71 33.83 33.58 33.28 32.78 32.32 31.99 31.55 30.75 30.84 31.17 31.64 31.32 30.85 30.31 29.37 29.04 29.71 29.83 31.16 29.98 29.84 29.50 30.22 30.21 31.24 32.91 31.15 29.76 30.24 33.34 34.49 37.46 38.82 40.11 41.60 42.05 42.35 42.05 41.69 41.08 41.51
33.51 33.21 32.08 31.42 31.00 31.45 32.86 32.24 32.32 31.68 30.74 30.52 31.06 31.55 31.98 32.93 36.19 36.19 33.41 29.64 29.47 28.96 28.79 28.84 29.03 29.18 28.78 28.41 27.94 30.05 30.42 32.24 33.34 33.53 33.69 34.23 34.42 35.76 36.21 38.86 38.92 39.71 41.38
30.49 30.42 30.18 30.72 30.21 32.25 37.37 39.01 38.00 33.44 32.80 31.51 30.51 30.89 30.67 33.83 33.13 37.16 37.68 37.23 35.05 29.19 27.72 27.30 27.63 27.68 27.68 28.13 29.46 28.77 29.28 30.96 28.85 31.00 30.05 32.86 33.45 33.59 34.84 34.93 38.80 40.35 40.30
29.11 28.84 29.12 29.59 29.19 29.32 37.47 38.74 38.71 33.46 31.87 30.87 30.29 29.93 30.15 32.77 33.65 29.83 32.76 35.11 34.58 36.18 36.33 31.65 28.26 28.26 28.23 29.41 29.60 28.51 28.26 29.97 29.93 32.66 33.55 31.09 31.82 30.89 33.68 35.30 38.56 39.10 38.92
28.86 28.62 28.85 28.98 28.74 30.67 36.83 37.84 37.91 31.66 30.26 29.90 29.45 29.00 28.31 28.40 29.04 31.07 28.76 28.01 28.61 29.18 30.42 31.11 30.19 30.76 30.94 32.49 31.01 31.64 33.35 29.71 30.00 31.21 33.52 29.00 29.78 30.99 31.78 33.10 36.95 37.67 38.33
28.42 28.41 28.97 28.82 28.08 28.47 35.40 36.80 34.98 30.12 28.77 27.92 28.75 28.66 28.02 27.51 32.52 36.31 32.21 29.40 28.07 28.52 33.92 36.39 37.33 38.19 38.61 38.83 38.10 32.58 28.38 26.47 27.00 28.44 32.70 31.06 30.77 28.61 29.19 29.94 31.36 36.21 37.30
29.43 28.75 28.40 27.63 29.88 26.98 32.99 35.53 34.59 29.38 26.93 27.35 27.97 28.42 33.54 33.20 35.98 36.29 31.80 28.56 27.81 29.18 28.77 29.48 30.22 32.06 34.74 32.82 36.93 32.49 29.20 27.86 28.03 27.13 30.63 27.93 27.00 26.10 25.41 26.72 27.49 30.59 32.84
MSLP
1018.81 1019.00 1019.02 1019.02 1019.18 1019.12 1019.18 1019.32 1019.33 1019.45 1019.41 1019.45 1019.53 1019.65 1019.81 1019.96 1020.08 1020.14 1020.08 1019.84 1019.83 1019.78 1019.70 1019.62 1019.53 1019.34 1019.25 1019.04 1018.85 1018.67 1018.49 1018.36 1018.17 1017.82 1017.60 1017.43 1017.23 1017.02 1016.74 1016.51 1016.35 1016.28 1016.05
1018.70 1019.00 1019.07 1019.21 1019.36 1019.31 1019.40 1019.50 1019.58 1019.65 1019.77 1019.73 1019.88 1019.90 1020.00 1020.09 1020.24 1020.33 1020.35 1020.29 1020.12 1020.12 1019.97 1019.87 1019.70 1019.56 1019.44 1019.21 1019.03 1018.86 1018.67 1018.48 1018.40 1018.15 1017.85 1017.62 1017.38 1017.18 1016.92 1016.71 1016.44 1016.38 1016.21
1018.70 1019.00 1019.11 1019.24 1019.47 1019.53 1019.48 1019.68 1019.86 1019.90 1019.99 1019.87 1020.14 1020.14 1020.26 1020.30 1020.39 1020.48 1020.51 1020.54 1020.49 1020.41 1020.21 1020.07 1019.94 1019.77 1019.66 1019.43 1019.11 1018.87 1018.74 1018.60 1018.53 1018.37 1018.03 1017.82 1017.62 1017.27 1017.05 1016.81 1016.49 1016.38 1016.29
1018.61 1018.97 1019.13 1019.25 1019.51 1019.65 1019.79 1020.00 1020.24 1020.44 1020.48 1020.42 1020.47 1020.53 1020.51 1020.54 1020.65 1020.73 1020.76 1020.72 1020.66 1020.69 1020.70 1020.49 1020.25 1020.07 1019.85 1019.60 1019.26 1018.87 1018.76 1018.73 1018.60 1018.46 1018.22 1017.93 1017.69 1017.45 1017.16 1016.89 1016.60 1016.37 1016.30
1018.49 1018.84 1019.15 1019.44 1019.56 1019.89 1020.07 1020.16 1020.51 1020.60 1020.88 1020.81 1020.67 1020.69 1020.87 1020.95 1021.08 1020.97 1021.17 1021.28 1021.23 1021.10 1021.08 1020.86 1020.75 1020.46 1020.21 1019.91 1019.53 1019.12 1018.88 1018.78 1018.60 1018.42 1018.27 1017.87 1017.68 1017.53 1017.29 1017.01 1016.58 1016.39 1016.29
1018.41 1018.75 1019.05 1019.23 1019.40 1019.79 1020.21 1020.50 1020.68 1020.81 1021.02 1021.05 1020.97 1021.12 1021.29 1021.21 1021.21 1021.39 1021.50 1021.34 1021.45 1021.55 1021.44 1021.22 1021.04 1020.83 1020.44 1020.24 1019.86 1019.48 1019.10 1018.89 1018.73 1018.45 1018.34 1018.12 1017.72 1017.48 1017.13 1017.02 1016.71 1016.34 1016.04
1018.39 1018.81 1019.25 1019.35 1019.58 1019.78 1020.16 1020.20 1020.78 1021.10 1021.12 1020.93 1021.14 1021.60 1021.62 1021.52 1021.65 1021.75 1021.85 1021.96 1021.72 1021.63 1021.59 1021.57 1021.54 1021.19 1020.82 1020.38 1020.08 1019.70 1019.50 1019.14 1018.78 1018.54 1018.35 1018.13 1017.88 1017.47 1017.10 1016.81 1016.61 1016.31 1016.09
1018.45 1018.69 1019.11 1019.50 1019.58 1019.95 1020.39 1020.70 1020.48 1021.24 1021.64 1021.31 1021.76 1022.29 1022.39 1022.24 1022.01 1022.18 1022.30 1022.23 1022.34 1022.01 1021.86 1021.79 1021.64 1021.44 1021.27 1020.96 1020.50 1020.15 1019.89 1019.61 1019.09 1018.52 1018.11 1017.93 1017.51 1017.39 1017.01 1016.58 1016.30 1015.98 1015.81
1018.71 1018.99 1019.31 1019.66 1019.95 1020.21 1020.52 1020.81 1020.99 1020.97 1021.83 1021.96 1021.66 1022.03 1022.77 1023.12 1022.99 1022.28 1022.51 1022.48 1022.38 1022.20 1021.98 1021.98 1021.83 1021.67 1021.55 1021.38 1020.92 1020.56 1020.07 1019.75 1019.27 1018.61 1018.08 1017.69 1017.47 1017.07 1016.77 1016.28 1015.99 1015.68 1015.52
1018.88 1019.14 1019.49 1019.83 1020.02 1020.21 1020.96 1020.98 1021.54 1021.31 1021.98 1022.39 1022.22 1022.25 1022.59 1022.89 1023.21 1023.21 1022.65 1022.56 1022.33 1022.31 1022.38 1022.09 1022.08 1021.88 1021.55 1021.53 1021.24 1020.85 1020.29 1019.94 1019.47 1018.94 1018.41 1017.83 1017.26 1016.79 1016.52 1016.26 1015.84 1015.57 1015.47
1019.00 1019.36 1019.58 1019.97 1020.36 1019.85 1021.20 1021.54 1021.75 1021.54 1022.22 1022.77 1022.70 1022.95 1023.15 1023.25 1023.30 1023.65 1023.51 1023.10 1022.69 1022.49 1022.26 1022.11 1021.99 1021.88 1021.59 1021.49 1021.34 1021.07 1020.54 1020.07 1019.62 1019.15 1018.63 1017.98 1017.35 1016.83 1016.44 1016.14 1015.81 1015.51 1015.24
1019.38 1019.76 1019.84 1020.24 1020.50 1020.45 1021.20 1021.53 1021.74 1022.07 1022.73 1022.86 1023.21 1023.26 1023.42 1023.78 1023.93 1023.77 1023.92 1023.59 1023.38 1022.95 1022.64 1022.42 1022.02 1021.92 1021.79 1021.52 1021.22 1021.02 1020.66 1020.25 1019.73 1019.40 1018.88 1018.08 1017.51 1017.15 1016.82 1016.42 1015.98 1015.66 1015.27
1019.83 1020.16 1020.53 1020.39 1020.52 1020.87 1021.08 1021.54 1022.20 1022.70 1022.87 1023.35 1023.58 1023.66 1023.69 1023.79 1023.78 1023.83 1024.05 1024.14 1023.85 1023.11 1022.75 1022.28 1022.14 1022.20 1021.90 1021.79 1021.50 1020.99 1020.65 1020.28 1019.89 1019.21 1018.79 1018.33 1017.86 1017.66 1017.47 1016.75 1016.22 1015.83 1015.40
1019.66 1020.90 1020.36 1020.25 1020.98 1021.34 1021.90 1022.08 1022.39 1022.80 1023.22 1023.82 1023.82 1023.96 1024.04 1024.06 1023.97 1024.14 1024.27 1024.64 1024.34 1023.78 1023.31 1022.98 1022.10 1022.05 1021.85 1021.79 1021.39 1021.11 1020.74 1020.32 1019.89 1019.37 1018.89 1018.61 1018.20 1017.85 1017.27 1016.87 1016.28 1015.76 1015.37
1019.47 1020.81 1020.53 1020.90 1021.56 1021.88 1022.16 1022.52 1022.94 1023.40 1023.63 1023.87 1023.97 1024.12 1024.33 1024.48 1024.35 1024.25 1024.45 1024.61 1024.70 1024.43 1023.75 1023.09 1022.95 1022.37 1022.20 1021.59 1021.18 1020.89 1020.88 1020.44 1019.72 1019.34 1018.91 1018.67 1018.23 1017.63 1017.15 1016.56 1016.04 1015.65 1015.01
1019.88 1020.60 1020.87 1021.17 1021.89 1022.40 1022.72 1022.88 1023.35 1023.62 1023.90 1023.98 1024.15 1024.25 1024.43 1024.64 1024.62 1024.35 1024.31 1024.45 1024.50 1024.49 1024.14 1023.21 1022.90 1022.50 1022.16 1021.68 1021.33 1020.98 1020.62 1020.22 1019.69 1019.31 1018.84 1018.44 1017.98 1017.49 1016.91 1016.45 1015.97 1015.38 1014.85
1019.14 1020.09 1021.32 1022.03 1022.42 1022.70 1022.90 1023.38 1023.60 1023.82 1024.04 1024.03 1024.22 1024.28 1024.47 1024.64 1024.53 1024.34 1024.25 1024.19 1024.20 1024.16 1023.82 1023.03 1022.61 1022.24 1022.14 1021.67 1021.36 1021.07 1020.55 1020.13 1019.49 1019.00 1018.74 1018.26 1017.80 1017.29 1016.77 1016.20 1015.71 1015.26 1014.76
1019.36 1020.22 1021.57 1022.31 1022.70 1022.93 1023.21 1023.60 1023.69 1023.70 1023.82 1023.90 1024.15 1024.30 1024.39 1024.52 1024.26 1024.17 1024.11 1024.04 1023.89 1023.62 1023.56 1022.93 1022.62 1022.32 1022.02 1021.43 1021.13 1020.99 1020.28 1019.80 1019.53 1019.08 1018.40 1017.81 1017.38 1016.91 1016.41 1015.90 1015.51 1015.06 1014.58
1020.80 1021.40 1021.72 1022.32 1022.55 1023.05 1023.46 1023.61 1023.45 1023.56 1023.75 1023.73 1024.06 1024.11 1024.30 1024.33 1024.08 1023.92 1023.83 1023.68 1023.46 1023.10 1023.02 1022.86 1022.53 1022.08 1021.68 1021.22 1020.83 1020.60 1020.24 1019.76 1019.34 1018.70 1018.13 1017.52 1016.83 1016.38 1015.98 1015.60 1015.17 1014.61 1014.14
1021.37 1021.51 1021.89 1022.17 1022.81 1023.16 1023.33 1023.38 1023.42 1023.40 1023.65 1023.65 1023.70 1023.96 1024.03 1023.78 1023.61 1023.37 1023.22 1023.08 1022.81 1022.84 1022.64 1022.38 1022.12 1021.81 1021.51 1020.95 1020.76 1020.61 1020.06 1019.56 1019.10 1018.45 1017.86 1017.16 1016.55 1016.09 1015.55 1015.15 1014.71 1014.28 1013.85
1021.25 1021.45 1021.83 1022.60 1023.27 1023.12 1022.97 1023.13 1023.28 1023.39 1023.38 1023.46 1023.41 1023.41 1023.37 1023.13 1022.77 1022.51 1022.23 1022.30 1022.20 1022.19 1022.01 1021.90 1021.80 1021.52 1021.20 1020.82 1020.61 1020.21 1019.92 1019.37 1018.79 1018.32 1017.64 1017.09 1016.60 1015.99 1015.36 1014.78 1014.36 1013.85 1013.27
1021.49 1021.98 1022.40 1022.73 1022.92 1022.93 1022.98 1022.97 1022.99 1022.95 1022.97 1023.09 1023.31 1023.09 1022.94 1022.61 1022.28 1021.67 1021.44 1021.19 1021.55 1021.37 1021.43 1021.34 1021.30 1021.14 1020.76 1020.39 1020.17 1019.98 1019.63 1019.11 1018.31 1017.87 1017.69 1016.64 1016.43 1015.88 1015.24 1014.68 1014.02 1013.37 1012.88
1021.79 1022.26 1022.52 1022.80 1022.98 1022.91 1022.86 1022.71 1022.47 1022.39 1022.79 1022.84 1023.03 1022.87 1022.59 1022.00 1021.63 1021.28 1021.09 1020.76 1020.87 1020.72 1020.61 1020.49 1020.57 1020.48 1020.12 1019.82 1019.58 1019.32 1019.03 1018.75 1018.23 1017.56 1017.21 1016.06 1016.01 1015.54 1014.81 1014.18 1013.68 1013.06 1012.36
1021.90 1022.34 1022.74 1022.99 1022.82 1022.63 1022.65 1022.56 1022.24 1022.18 1022.40 1022.54 1022.56 1022.44 1022.12 1021.68 1021.20 1020.76 1020.76 1020.47 1020.16 1019.95 1019.71 1019.67 1019.60 1019.46 1019.24 1018.95 1019.01 1018.55 1018.22 1018.10 1017.55 1016.94 1016.60 1015.92 1015.56 1015.16 1014.52 1013.87 1013.09 1012.45 1011.84
1022.08 1022.37 1022.70 1022.79 1022.79 1022.72 1022.58 1022.33 1021.71 1021.92 1022.12 1022.22 1022.20 1021.91 1021.50 1021.28 1020.90 1020.35 1020.07 1019.92 1019.55 1019.18 1018.73 1018.60 1018.45 1018.18 1017.93 1017.74 1017.57 1017.74 1017.91 1017.92 1017.29 1016.69 1016.07 1015.95 1015.37 1014.96 1014.27 1013.42 1012.69 1012.25 1011.73
1022.22 1022.51 1022.69 1022.77 1022.73 1022.79 1022.30 1021.87 1021.63 1021.83 1022.15 1022.13 1021.67 1021.49 1021.11 1020.73 1020.20 1019.84 1019.46 1019.27 1018.96 1018.49 1018.24 1018.06 1017.97 1017.79 1017.46 1017.39 1017.15 1017.29 1017.37 1017.49 1017.20 1016.40 1015.95 1016.05 1015.49 1015.35 1013.94 1012.91 1012.50 1011.96 1011.41
Wind_Speed
4 4 4 4 4 3 4 4 5 4 5 6 5 5 4 4 4 2 2 7 8 9 10 12 13 13 13 13 13 13 13 12 13 12 12 13 13 13 13 11 10 11 13
5 4 4 4 4 3 3 4 4 4 4 3 5 4 4 3 3 3 1 3 7 8 9 11 12 13 13 14 13 13 12 12 12 13 12 13 13 14 14 13 10 11 13
5 5 4 4 3 3 5 4 4 4 4 3 5 4 3 4 3 2 2 1 3 6 7 9 13 13 14 16 14 13 15 12 11 12 13 13 14 14 14 14 12 11 14
6 5 4 4 3 4 4 4 3 4 4 4 3 3 3 3 3 4 3 3 2 3 6 12 14 13 13 16 16 15 15 14 11 11 11 11 11 13 14 16 12 10 15
6 6 4 4 5 4 4 3 4 3 3 3 3 3 3 4 4 3 5 6 5 5 4 10 15 14 14 16 16 16 14 14 12 11 11 10 10 12 14 15 15 12 13
6 6 5 5 5 5 4 4 4 4 3 2 4 4 4 4 4 4 5 4 5 6 5 6 5 6 15 16 15 15 13 15 14 12 10 11 12 12 12 12 14 15 15
6 6 4 5 4 5 4 4 3 5 5 3 3 3 3 4 6 5 4 4 7 5 7 5 4 4 5 14 14 14 14 15 15 14 12 12 13 14 14 14 15 16 13
6 6 6 5 6 5 6 5 4 2 3 5 4 2 3 4 3 4 3 4 6 3 5 6 6 7 6 5 9 15 15 15 16 14 13 14 14 14 15 14 15 15 14
5 6 6 5 5 4 4 4 4 5 3 3 6 4 3 0 2 2 2 3 5 4 5 5 5 5 6 5 7 9 17 15 15 17 16 16 16 17 18 18 15 15 13
6 6 6 6 6 5 5 5 3 4 3 3 2 5 4 3 2 4 2 2 4 5 5 4 5 5 5 4 9 13 16 17 17 17 19 20 21 19 18 20 20 19 19
6 6 7 6 5 6 5 6 4 6 3 3 3 2 3 3 3 2 3 4 4 4 3 4 4 4 5 4 5 7 16 18 19 19 20 21 20 20 22 21 22 22 22
4 5 6 6 5 6 5 5 5 8 5 5 3 3 2 2 1 2 1 2 2 2 4 3 4 4 5 6 9 16 19 22 20 21 22 20 20 20 20 21 21 21 22
3 4 4 6 5 6 6 6 6 6 5 4 3 3 2 2 1 1 1 2 3 3 2 2 1 3 5 4 7 15 17 19 21 21 21 21 19 20 21 21 22 22 23
6 2 5 8 6 7 5 5 4 4 6 4 6 4 2 2 2 1 0 0 3 2 2 5 4 3 3 4 8 17 8 20 20 19 19 20 21 22 22 22 21 20 22
7 6 7 8 6 6 6 6 4 5 4 3 4 4 3 2 3 2 1 1 1 3 4 3 2 4 5 7 11 6 6 15 19 18 20 22 22 21 22 21 21 21 20
8 8 7 8 7 6 6 6 4 3 5 3 3 5 3 2 3 2 1 1 2 3 4 3 3 4 5 5 8 9 10 16 15 18 20 22 21 21 21 21 22 22 21
11 9 7 6 6 6 6 6 4 4 4 4 3 4 3 3 3 3 2 2 2 2 5 3 3 3 4 5 6 5 7 8 8 18 21 20 19 19 20 20 20 21 21
9 9 8 6 6 6 5 5 4 3 2 2 2 3 4 3 4 3 2 5 3 4 4 8 3 3 4 5 5 6 6 7 6 16 22 23 22 20 18 18 20 22 23
7 6 7 7 6 5 4 3 3 3 1 1 3 3 5 3 4 3 3 4 3 4 4 3 5 3 4 3 4 4 5 6 6 16 18 21 22 20 18 20 22 22 23
7 7 6 7 6 4 3 2 3 3 2 3 4 5 6 5 6 6 5 5 5 4 4 4 4 4 4 4 2 3 5 4 6 8 14 15 19 18 20 23 21 20 20
6 7 7 6 4 3 2 2 1 3 3 5 6 5 6 7 11 10 5 5 4 4 4 4 5 3 3 3 4 3 5 6 7 6 7 7 5 9 10 14 14 18 20
7 6 6 5 3 2 5 6 5 3 4 4 6 7 6 10 10 15 14 14 11 5 5 3 3 4 5 4 2 3 4 8 10 1 3 11 4 9 9 8 17 21 24
6 6 4 3 1 2 6 9 10 3 3 5 6 6 6 6 10 6 12 14 13 15 16 6 5 6 5 5 3 4 5 5 7 6 6 12 4 7 7 8 19 25 25
5 4 3 1 2 3 8 10 10 3 3 6 6 6 6 7 8 9 7 7 7 7 7 5 6 7 7 7 6 6 6 5 5 5 5 10 4 7 5 9 21 23 22
3 2 1 2 2 6 9 10 9 4 4 6 6 6 6 7 13 17 9 8 7 7 8 13 15 16 18 18 14 3 3 2 8 7 6 4 2 7 5 9 7 16 23
3 2 2 1 4 4 9 11 9 3 4 4 6 6 11 12 19 18 10 6 8 9 6 6 6 8 10 8 13 5 3 4 6 8 2 2 5 2 7 4 4 9 7
Wind_Direction
121 118 106 95 87 90 84 81 81 68 66 73 72 90 109 111 98 77 38 70 61 51 43 35 30 29 21 14 17 15 9 14 3 7 358 1 357 360 6 10 13 7 3
128 123 116 96 84 88 91 87 86 80 65 68 79 65 86 127 101 98 60 21 56 43 36 31 26 24 17 14 4 4 11 2 4 358 359 356 351 348 349 352 1 356 353
132 128 117 103 106 94 95 84 68 64 53 61 74 77 74 93 109 103 67 50 31 18 21 24 17 15 10 5 4 359 357 356 357 353 353 359 357 346 344 344 332 347 346
136 127 121 110 109 87 85 75 66 54 46 47 44 43 72 73 69 73 42 33 52 27 9 14 11 4 4 1 356 356 355 356 353 347 345 348 351 346 342 336 346 353 350
140 126 117 116 106 85 65 77 58 79 39 28 71 58 55 72 47 59 46 34 15 24 21 12 7 8 5 360 355 354 357 354 345 341 332 341 346 341 345 335 337 348 336
136 126 125 128 118 102 80 61 82 60 86 52 56 62 54 66 40 57 50 57 45 39 28 25 13 0 6 351 351 356 359 356 349 345 331 331 335 335 337 333 330 325 332
137 126 118 115 104 95 109 126 109 55 28 27 86 30 32 52 56 65 61 54 35 35 26 25 1 356 347 357 353 354 353 356 355 344 340 329 324 322 325 327 327 326 332
138 136 136 130 125 114 83 56 91 93 44 9 101 83 29 344 25 37 40 55 24 16 27 11 10 5 357 345 358 7 360 350 347 347 338 331 324 317 310 311 318 319 332
121 117 115 110 104 88 91 83 60 94 113 27 56 126 90 222 321 354 18 44 16 19 11 3 5 5 5 1 19 9 8 360 344 335 334 330 329 327 319 310 300 308 321
126 121 111 109 109 100 88 89 77 82 91 67 45 47 64 130 120 340 337 317 11 12 353 352 347 348 4 354 357 356 0 355 346 336 329 327 324 320 319 319 318 326 313
120 120 114 113 106 99 79 94 79 74 65 82 64 64 61 66 84 123 276 324 347 345 335 339 328 337 358 359 339 343 354 350 340 335 331 327 323 323 323 322 318 320 319
100 100 111 98 100 101 113 101 84 80 82 78 73 69 89 73 18 59 319 302 281 300 290 317 343 346 344 349 350 349 345 343 341 335 327 323 325 327 325 322 321 320 318
80 109 127 118 95 94 95 94 90 86 75 77 81 74 61 82 115 122 142 291 304 297 312 273 326 350 347 346 335 337 336 335 334 329 326 327 334 335 327 322 317 314 314
118 148 104 88 96 96 90 93 91 85 94 93 81 64 65 49 60 61 53 241 308 283 316 286 331 332 337 321 327 334 325 327 329 327 326 325 324 322 318 317 316 314 309
117 141 114 105 93 90 90 87 86 91 92 90 77 63 56 27 32 38 44 157 200 305 302 293 314 330 317 329 322 332 319 318 324 326 324 321 321 320 318 316 315 314 308
124 120 104 96 98 95 95 95 94 85 92 64 76 59 37 355 357 25 346 259 216 222 260 234 259 271 292 309 308 328 321 328 317 316 319 320 318 317 318 318 316 312 310
127 109 101 108 111 109 99 94 98 90 88 70 38 34 23 335 331 333 322 286 269 223 267 281 244 267 280 280 294 299 306 313 314 312 315 316 316 318 315 317 318 317 316
100 114 119 115 108 103 99 95 81 63 75 37 6 357 328 329 325 304 293 286 255 259 234 289 258 271 251 275 266 286 292 303 299 304 310 312 313 313 315 317 319 315 311
109 115 118 116 110 101 94 83 78 33 351 298 302 308 296 293 299 291 290 278 268 286 273 255 287 255 260 273 295 291 287 289 289 300 309 308 307 310 312 317 317 313 313
125 116 105 99 97 102 95 47 21 359 304 274 283 262 271 272 267 278 282 279 279 281 270 269 275 260 247 270 261 271 296 291 293 300 301 297 303 305 307 312 314 311 307
109 102 101 97 95 80 50 11 314 288 289 296 293 280 268 266 271 271 274 266 275 262 277 274 282 256 259 277 272 268 295 297 299 275 284 298 307 312 304 307 303 307 307
108 106 99 94 63 29 347 349 344 292 304 301 290 292 276 283 282 291 295 301 298 277 263 256 252 270 270 249 235 267 284 306 311 294 324 299 294 293 296 297 299 310 310
117 113 105 99 27 336 348 350 345 344 301 283 275 273 283 278 293 281 288 295 293 295 289 275 252 253 258 238 250 280 259 262 282 295 295 291 298 282 281 287 303 306 307
122 127 127 102 359 333 338 339 337 324 288 281 276 276 269 280 283 290 267 267 268 269 273 266 237 253 239 259 234 251 276 271 275 273 278 284 301 290 293 298 302 303 303
117 110 96 29 342 306 318 329 341 317 305 293 287 287 277 272 280 298 285 259 260 268 279 278 285 286 293 297 295 295 282 286 303 297 295 278 304 294 289 294 291 316 316
99 63 359 326 297 303 324 333 332 314 293 275 277 271 287 305 312 314 304 281 279 272 255 277 283 285 284 284 294 267 224 267 290 300 258 263 293 288 303 252 307 302 303